Time,TemperatureF,DewpointF,PressureIn,WindDirection,WindDirectionDegrees,WindSpeedMPH,WindSpeedGustMPH,Humidity,HourlyPrecipIn,Conditions,Clouds,dailyrainin,SoftwareType,DateUTC
2013-07-31 00:12:00,59.0,42.0,29.89,NNW,338,6.0,-999.0,53,-99.99,,,0.00,weatherlink.com 1.10,2013-07-31 06:12:00,
2013-07-31 00:27:00,59.0,42.0,29.89,NW,310,5.0,-999.0,53,-99.99,,,0.00,weatherlink.com 1.10,2013-07-31 06:27:00,
2013-07-31 00:42:00,59.0,42.0,29.88,NNW,344,5.0,-999.0,53,-99.99,,,0.00,weatherlink.com 1.10,2013-07-31 06:42:00,
2013-07-31 00:57:00,58.9,42.0,29.88,North,5,1.0,-999.0,53,-99.99,,,0.00,weatherlink.com 1.10,2013-07-31 06:57:00,
2013-07-31 01:12:00,58.4,42.0,29.88,NNW,329,0.0,-999.0,54,-99.99,,,0.00,weatherlink.com 1.10,2013-07-31 07:12:00,
2013-07-31 01:27:00,58.2,41.0,29.88,NNW,344,0.0,-999.0,54,-99.99,,,0.00,weatherlink.com 1.10,2013-07-31 07:27:00,
2013-07-31 01:42:00,57.2,41.0,29.88,SE,130,5.0,-999.0,55,-99.99,,,0.00,weatherlink.com 1.10,2013-07-31 07:42:00,
2013-07-31 01:57:00,57.6,41.0,29.88,SE,133,0.0,-999.0,55,-99.99,,,0.00,weatherlink.com 1.10,2013-07-31 07:57:00,
2013-07-31 02:12:00,57.4,41.0,29.88,SE,134,2.0,-999.0,55,-99.99,,,0.00,weatherlink.com 1.10,2013-07-31 08:12:00,
2013-07-31 02:27:00,57.1,41.0,29.88,SSE,164,0.0,-999.0,55,-99.99,,,0.00,weatherlink.com 1.10,2013-07-31 08:27:00,
2013-07-31 02:42:00,57.2,40.0,29.88,SSE,164,0.0,-999.0,54,-99.99,,,0.00,weatherlink.com 1.10,2013-07-31 08:42:00,
2013-07-31 02:57:00,57.5,41.0,29.88,SSE,164,0.0,-999.0,54,-99.99,,,0.00,weatherlink.com 1.10,2013-07-31 08:57:00,
2013-07-31 03:12:00,57.4,41.0,29.88,SSE,163,0.0,-999.0,54,-99.99,,,0.00,weatherlink.com 1.10,2013-07-31 09:12:00,
2013-07-31 03:27:00,57.7,41.0,29.88,SSE,163,0.0,-999.0,54,-99.99,,,0.00,weatherlink.com 1.10,2013-07-31 09:27:00,
2013-07-31 03:42:00,57.3,42.0,29.88,SSE,163,1.0,-999.0,56,-99.99,,,0.00,weatherlink.com 1.10,2013-07-31 09:42:00,
2013-07-31 03:57:00,56.4,41.0,29.88,SE,144,4.0,-999.0,56,-99.99,,,0.00,weatherlink.com 1.10,2013-07-31 09:57:00,
2013-07-31 04:12:00,56.3,41.0,29.88,SE,144,3.0,-999.0,56,-99.99,,,0.00,weatherlink.com 1.10,2013-07-31 10:12:00,
2013-07-31 04:27:00,56.5,40.0,29.88,SE,144,0.0,-999.0,55,-99.99,,,0.00,weatherlink.com 1.10,2013-07-31 10:27:00,
2013-07-31 04:42:00,56.0,43.0,29.88,SE,144,3.0,-999.0,62,-99.99,,,0.00,weatherlink.com 1.10,2013-07-31 10:42:00,
2013-07-31 04:57:00,55.0,42.0,29.89,East,101,3.0,-999.0,61,-99.99,,,0.00,weatherlink.com 1.10,2013-07-31 10:57:00,
2013-07-31 05:12:00,54.3,41.0,29.88,East,101,1.0,-999.0,62,-99.99,,,0.00,weatherlink.com 1.10,2013-07-31 11:12:00,
2013-07-31 05:28:00,53.6,42.0,29.88,East,101,2.0,-999.0,65,-99.99,,,0.00,weatherlink.com 1.10,2013-07-31 11:28:00,
2013-07-31 05:43:00,52.9,41.0,29.89,East,101,0.0,-999.0,65,-99.99,,,0.00,weatherlink.com 1.10,2013-07-31 11:43:00,
2013-07-31 05:58:00,52.5,42.0,29.89,East,101,0.0,-999.0,67,-99.99,,,0.00,weatherlink.com 1.10,2013-07-31 11:58:00,
2013-07-31 06:13:00,52.4,42.0,29.89,SE,143,5.0,-999.0,68,-99.99,,,0.00,weatherlink.com 1.10,2013-07-31 12:13:00,
2013-07-31 06:28:00,52.4,43.0,29.89,SSE,147,6.0,-999.0,70,-99.99,,,0.00,weatherlink.com 1.10,2013-07-31 12:28:00,
2013-07-31 06:43:00,52.3,43.0,29.89,SE,141,6.0,-999.0,70,-99.99,,,0.00,weatherlink.com 1.10,2013-07-31 12:43:00,
2013-07-31 06:58:00,53.1,43.0,29.89,SE,138,3.0,-999.0,69,-99.99,,,0.00,weatherlink.com 1.10,2013-07-31 12:58:00,
2013-07-31 07:13:00,53.6,43.0,29.89,SE,138,0.0,-999.0,68,-99.99,,,0.00,weatherlink.com 1.10,2013-07-31 13:13:00,
2013-07-31 07:28:00,54.7,44.0,29.89,SE,138,0.0,-999.0,67,-99.99,,,0.00,weatherlink.com 1.10,2013-07-31 13:28:00,
2013-07-31 07:43:00,56.2,43.0,29.89,SE,136,3.0,-999.0,62,-99.99,,,0.00,weatherlink.com 1.10,2013-07-31 13:43:00,
2013-07-31 07:58:00,57.6,43.0,29.90,NE,44,4.0,-999.0,59,-99.99,,,0.00,weatherlink.com 1.10,2013-07-31 13:58:00,
2013-07-31 08:13:00,58.7,44.0,29.89,NE,44,0.0,-999.0,59,-99.99,,,0.00,weatherlink.com 1.10,2013-07-31 14:13:00,
2013-07-31 08:28:00,60.2,45.0,29.89,North,360,0.0,-999.0,57,-99.99,,,0.00,weatherlink.com 1.10,2013-07-31 14:28:00,
2013-07-31 08:43:00,62.3,46.0,29.89,NE,53,0.0,-999.0,55,-99.99,,,0.00,weatherlink.com 1.10,2013-07-31 14:43:00,
2013-07-31 08:58:00,64.6,46.0,29.90,ENE,74,0.0,-999.0,52,-99.99,,,0.00,weatherlink.com 1.10,2013-07-31 14:58:00,
2013-07-31 09:13:00,67.0,46.0,29.89,ENE,75,0.0,-999.0,48,-99.99,,,0.00,weatherlink.com 1.10,2013-07-31 15:13:00,
2013-07-31 09:28:00,69.3,46.0,29.89,South,179,0.0,-999.0,44,-99.99,,,0.00,weatherlink.com 1.10,2013-07-31 15:28:00,
2013-07-31 09:43:00,71.3,47.0,29.89,SE,137,0.0,-999.0,42,-99.99,,,0.00,weatherlink.com 1.10,2013-07-31 15:43:00,
2013-07-31 09:58:00,72.6,45.0,29.89,South,189,0.0,-999.0,38,-99.99,,,0.00,weatherlink.com 1.10,2013-07-31 15:58:00,
2013-07-31 10:13:00,73.1,48.0,29.88,ENE,63,0.0,-999.0,41,-99.99,,,0.00,weatherlink.com 1.10,2013-07-31 16:13:00,
2013-07-31 10:28:00,74.2,48.0,29.87,SE,146,5.0,-999.0,40,-99.99,,,0.00,weatherlink.com 1.10,2013-07-31 16:28:00,
2013-07-31 10:43:00,75.0,50.0,29.87,SE,126,8.0,-999.0,42,-99.99,,,0.00,weatherlink.com 1.10,2013-07-31 16:43:00,
2013-07-31 10:58:00,74.8,49.0,29.86,SSE,148,5.0,-999.0,40,-99.99,,,0.00,weatherlink.com 1.10,2013-07-31 16:58:00,
2013-07-31 11:13:00,72.8,47.0,29.86,South,175,1.0,-999.0,40,-99.99,,,0.00,weatherlink.com 1.10,2013-07-31 17:13:00,
2013-07-31 11:28:00,71.9,46.0,29.86,SSE,159,0.0,-999.0,40,-99.99,,,0.00,weatherlink.com 1.10,2013-07-31 17:28:00,
2013-07-31 11:43:00,71.6,46.0,29.86,SSE,154,3.0,-999.0,40,-99.99,,,0.00,weatherlink.com 1.10,2013-07-31 17:43:00,
2013-07-31 11:58:00,73.2,47.0,29.85,SE,128,9.0,-999.0,40,-99.99,,,0.00,weatherlink.com 1.10,2013-07-31 17:58:00,
2013-07-31 12:14:00,72.6,47.0,29.84,ESE,115,4.0,-999.0,40,-99.99,,,0.00,weatherlink.com 1.10,2013-07-31 18:14:00,
2013-07-31 12:29:00,70.8,48.0,29.85,WNW,294,0.0,-999.0,44,-99.99,,,0.00,weatherlink.com 1.10,2013-07-31 18:29:00,
2013-07-31 12:44:00,71.6,49.0,29.85,North,360,10.0,-999.0,45,-99.99,,,0.00,weatherlink.com 1.10,2013-07-31 18:44:00,
2013-07-31 12:59:00,72.7,49.0,29.84,North,360,0.0,-999.0,43,-99.99,,,0.00,weatherlink.com 1.10,2013-07-31 18:59:00,
2013-07-31 13:14:00,73.9,49.0,29.83,SE,134,6.0,-999.0,42,-99.99,,,0.00,weatherlink.com 1.10,2013-07-31 19:14:00,
2013-07-31 13:29:00,75.5,49.0,29.82,SSE,149,6.0,-999.0,39,-99.99,,,0.00,weatherlink.com 1.10,2013-07-31 19:29:00,
2013-07-31 13:44:00,77.9,49.0,29.82,SE,145,4.0,-999.0,36,-99.99,,,0.00,weatherlink.com 1.10,2013-07-31 19:44:00,
2013-07-31 14:01:00,77.6,49.0,29.82,South,169,19.0,-999.0,37,-99.99,,,0.00,weatherlink.com 1.10,2013-07-31 20:01:00,
2013-07-31 14:14:00,78.5,49.0,29.82,SE,136,10.0,-999.0,35,-99.99,,,0.00,weatherlink.com 1.10,2013-07-31 20:14:00,
2013-07-31 14:29:00,74.8,47.0,29.82,SE,136,13.0,-999.0,37,-99.99,,,0.00,weatherlink.com 1.10,2013-07-31 20:29:00,
2013-07-31 14:44:00,69.0,53.0,29.82,SSE,147,7.0,-999.0,57,-99.99,,,0.01,weatherlink.com 1.10,2013-07-31 20:44:00,
2013-07-31 14:59:00,69.0,50.0,29.81,SSE,167,13.0,-999.0,52,-99.99,,,0.01,weatherlink.com 1.10,2013-07-31 20:59:00,
2013-07-31 15:14:00,71.9,49.0,29.80,SSE,163,9.0,-999.0,44,-99.99,,,0.01,weatherlink.com 1.10,2013-07-31 21:14:00,
2013-07-31 15:29:00,71.9,46.0,29.79,ESE,103,11.0,-999.0,39,-99.99,,,0.01,weatherlink.com 1.10,2013-07-31 21:29:00,
2013-07-31 15:44:00,69.7,47.0,29.79,SE,136,14.0,-999.0,44,-99.99,,,0.01,weatherlink.com 1.10,2013-07-31 21:44:00,
2013-07-31 15:59:00,68.8,47.0,29.79,SSE,165,9.0,-999.0,46,-99.99,,,0.01,weatherlink.com 1.10,2013-07-31 21:59:00,
2013-07-31 16:14:00,68.1,47.0,29.81,SSW,208,15.0,-999.0,47,-99.99,,,0.01,weatherlink.com 1.10,2013-07-31 22:14:00,
2013-07-31 16:29:00,64.5,45.0,29.83,WNW,288,9.0,-999.0,50,-99.99,,,0.02,weatherlink.com 1.10,2013-07-31 22:29:00,
2013-07-31 16:44:00,61.2,47.0,29.78,WNW,303,0.0,-999.0,59,-99.99,,,0.04,weatherlink.com 1.10,2013-07-31 22:44:00,
2013-07-31 16:59:00,65.3,48.0,29.79,SSE,162,3.0,-999.0,53,-99.99,,,0.04,weatherlink.com 1.10,2013-07-31 22:59:00,
2013-07-31 17:14:00,67.4,46.0,29.79,SSE,153,11.0,-999.0,47,-99.99,,,0.04,weatherlink.com 1.10,2013-07-31 23:14:00,
2013-07-31 17:29:00,69.5,43.0,29.77,South,180,12.0,-999.0,39,-99.99,,,0.04,weatherlink.com 1.10,2013-07-31 23:29:00,
2013-07-31 17:44:00,70.6,42.0,29.78,South,180,6.0,-999.0,36,-99.99,,,0.04,weatherlink.com 1.10,2013-07-31 23:44:00,
2013-07-31 17:59:00,71.7,43.0,29.78,South,179,4.0,-999.0,35,-99.99,,,0.04,weatherlink.com 1.10,2013-07-31 23:59:00,
2013-07-31 18:14:00,70.7,44.0,29.78,North,360,4.0,-999.0,39,-99.99,,,0.04,weatherlink.com 1.10,2013-08-01 00:14:00,
2013-07-31 18:29:00,69.5,45.0,29.79,SE,134,0.0,-999.0,42,-99.99,,,0.04,weatherlink.com 1.10,2013-08-01 00:29:00,
2013-07-31 18:44:00,69.2,46.0,29.78,SE,132,0.0,-999.0,44,-99.99,,,0.04,weatherlink.com 1.10,2013-08-01 00:44:00,
2013-07-31 18:59:00,67.4,45.0,29.79,ENE,67,5.0,-999.0,44,-99.99,,,0.04,weatherlink.com 1.10,2013-08-01 00:59:00,
2013-07-31 19:14:00,66.6,45.0,29.80,SE,130,4.0,-999.0,46,-99.99,,,0.04,weatherlink.com 1.10,2013-08-01 01:14:00,
2013-07-31 19:29:00,65.4,47.0,29.80,ESE,119,0.0,-999.0,52,-99.99,,,0.04,weatherlink.com 1.10,2013-08-01 01:29:00,
2013-07-31 19:44:00,63.5,47.0,29.81,SSE,153,0.0,-999.0,56,-99.99,,,0.04,weatherlink.com 1.10,2013-08-01 01:44:00,
2013-07-31 19:59:00,61.9,46.0,29.82,SE,142,0.0,-999.0,57,-99.99,,,0.04,weatherlink.com 1.10,2013-08-01 01:59:00,
2013-07-31 20:14:00,60.9,46.0,29.82,SSE,151,0.0,-999.0,59,-99.99,,,0.04,weatherlink.com 1.10,2013-08-01 02:14:00,
2013-07-31 20:29:00,59.8,47.0,29.83,SE,142,0.0,-999.0,62,-99.99,,,0.04,weatherlink.com 1.10,2013-08-01 02:29:00,
2013-07-31 20:44:00,58.9,47.0,29.83,ESE,121,3.0,-999.0,65,-99.99,,,0.04,weatherlink.com 1.10,2013-08-01 02:44:00,
2013-07-31 20:59:00,58.0,47.0,29.84,NE,55,0.0,-999.0,66,-99.99,,,0.04,weatherlink.com 1.10,2013-08-01 02:59:00,
2013-07-31 21:14:00,57.6,47.0,29.84,ENE,76,0.0,-999.0,67,-99.99,,,0.04,weatherlink.com 1.10,2013-08-01 03:14:00,
2013-07-31 21:29:00,56.9,46.0,29.85,ENE,76,0.0,-999.0,68,-99.99,,,0.04,weatherlink.com 1.10,2013-08-01 03:29:00,
2013-07-31 21:44:00,56.3,46.0,29.85,ENE,76,0.0,-999.0,69,-99.99,,,0.04,weatherlink.com 1.10,2013-08-01 03:44:00,
2013-07-31 21:59:00,55.9,46.0,29.86,ENE,76,0.0,-999.0,70,-99.99,,,0.04,weatherlink.com 1.10,2013-08-01 03:59:00,
2013-07-31 22:14:00,55.4,46.0,29.86,ENE,76,0.0,-999.0,71,-99.99,,,0.04,weatherlink.com 1.10,2013-08-01 04:14:00,
2013-07-31 22:29:00,55.3,46.0,29.86,ENE,76,0.0,-999.0,70,-99.99,,,0.04,weatherlink.com 1.10,2013-08-01 04:29:00,
2013-07-31 22:44:00,55.2,46.0,29.86,ENE,76,0.0,-999.0,71,-99.99,,,0.04,weatherlink.com 1.10,2013-08-01 04:44:00,
2013-07-31 22:59:00,54.9,46.0,29.85,North,360,0.0,-999.0,72,-99.99,,,0.04,weatherlink.com 1.10,2013-08-01 04:59:00,
2013-07-31 23:14:00,54.5,46.0,29.85,SSE,156,0.0,-999.0,73,-99.99,,,0.04,weatherlink.com 1.10,2013-08-01 05:14:00,
2013-07-31 23:29:00,53.9,46.0,29.84,SSE,156,0.0,-999.0,75,-99.99,,,0.04,weatherlink.com 1.10,2013-08-01 05:29:00,
2013-07-31 23:44:00,53.5,46.0,29.84,SSE,156,0.0,-999.0,76,-99.99,,,0.04,weatherlink.com 1.10,2013-08-01 05:44:00,
2013-07-31 23:59:00,53.7,46.0,29.84,SSE,156,0.0,-999.0,75,-99.99,,,0.04,weatherlink.com 1.10,2013-08-01 05:59:00,